CW4541 Weather Reports


time (UTC)temp
F
wind
direction
speed
knots
gust
knots
rain 1hr
in
rain 24hr
in
rain mn
in
humidity
%
barometer
mb
20260510030113 57 0 0.9 5.2 0.00 0.00 0.00 3 1019.7
20260510020606 62 0 0.0 5.2 0.00 0.00 0.00 3 1018.7
20260510020112 63 0 0.9 7.0 0.00 0.00 0.00 3 1018.7
20260510010112 69 0 2.6 10.4 0.00 0.00 0.00 4 1018.1
20260510000606 67 0 3.5 12.2 0.00 0.00 0.00 7 1018.1
20260510000112 67 0 6.1 12.2 0.00 0.00 0.00 6 1018.3
20260509230112 69 0 4.3 13.9 0.00 0.00 0.00 5 1017.9
20260509220606 71 0 7.0 17.4 0.00 0.00 0.00 4 1018.2
20260509220112 71 0 6.1 17.4 0.00 0.00 0.00 4 1018.1
20260509210111 71 0 11.3 17.4 0.00 0.00 0.00 5 1018.6
20260509200606 72 0 5.2 12.2 0.00 0.00 0.00 6 1019.1
20260509190606 70 0 6.1 11.3 0.00 0.00 0.00 7 1019.5
20260509180606 70 0 5.2 11.3 0.00 0.00 0.00 6 1020.1
20260509180112 70 0 5.2 11.3 0.00 0.00 0.00 7 1020.1
20260509170606 68 0 1.7 10.4 0.00 0.00 0.00 8 1020.7
20260509160111 67 0 0.9 5.2 0.00 0.00 0.00 8 1020.5
20260509090604 44 0 0.0 0.0 0.00 0.00 0.00 29 1019.7
20260509080604 49 0 0.0 0.0 0.00 0.00 0.00 23 1019.8
20260509080110 49 0 0.0 0.0 0.00 0.00 0.00 22 1019.9
20260509070605 52 0 0.9 1.7 0.00 0.00 0.00 18 1020.7
20260509070109 52 0 0.9 1.7 0.00 0.00 0.00 18 1020.7
20260509060604 54 0 0.9 4.3 0.00 0.00 0.00 16 1020.8
20260509060109 54 0 0.9 4.3 0.00 0.00 0.00 16 1020.8
20260509050606 54 0 0.0 0.0 0.00 0.00 0.00 17 1021.0
20260509050111 54 0 0.0 0.0 0.00 0.00 0.00 17 1021.0
20260509040606 55 0 0.0 0.0 0.00 0.00 0.00 16 1020.5
20260509040111 55 0 0.0 0.0 0.00 0.00 0.00 16 1020.5